If you wish to contribute or participate in the discussions about articles you are invited to join SKYbrary as a registered user

 Actions

Arad International Airport

From SKYbrary Wiki

LRAR
Airport
ICAO: LRAR – IATA: ARW
Summary
Name Arad International Airport
Region
Territory Romania RO.gif
Location , Arad
Serving Arad
Elevation 107.29 m
352 ft
352 ft107.29 m
Type medium airport
Coordinates 46° 10' 35.58", 21° 15' 43.2792"
Runways
Designator Length Width Surface ROPS
9/27 2000 m6,561.68 ft 45 m147.638 ft CON /


METAR
Observation LRAR 250430Z AUTO 01013KT 9999 R09////// R27/P2000 NCD M07/M11 Q1020
Station Arad
Date/Time 25 February 2018 04:30:00
Wind direction 10°
Wind speed 13 kts
Lowest cloud amount no clouds detected
Temperature 9°C
Dew point 0°C
Humidity 53%
QNH 1020 hPa
Weather condition n/a